Time,TemperatureF,DewpointF,PressureIn,WindDirection,WindDirectionDegrees,WindSpeedMPH,WindSpeedGustMPH,Humidity,HourlyPrecipIn,Conditions,Clouds,dailyrainin,SoftwareType,DateUTC
2013-03-21 00:02:00,53.0,52.0,29.65,SE,138,7.0,10.0,95,0.01,,,0.44,,2013-03-20 23:02:00,
2013-03-21 00:11:00,53.0,52.0,29.65,SE,138,7.0,10.0,95,0.01,,,0.44,,2013-03-20 23:11:00,
2013-03-21 00:22:00,53.0,52.0,29.65,SSE,159,4.0,10.0,95,0.01,,,0.44,,2013-03-20 23:22:00,
2013-03-21 00:32:00,54.0,53.0,29.65,SSE,159,8.0,9.0,96,0.00,,,0.44,,2013-03-20 23:32:00,
2013-03-21 00:42:00,54.0,53.0,29.65,SSE,159,8.0,9.0,96,0.00,,,0.44,,2013-03-20 23:42:00,
2013-03-21 00:52:00,55.0,54.0,29.64,SE,144,3.0,6.0,96,0.00,,,0.44,,2013-03-20 23:52:00,
2013-03-21 01:02:00,55.0,54.0,29.64,South,182,5.0,10.0,96,0.01,,,0.45,,2013-03-21 00:02:00,
2013-03-21 01:11:00,55.0,54.0,29.64,South,182,5.0,10.0,96,0.01,,,0.45,,2013-03-21 00:11:00,
2013-03-21 01:22:00,55.0,54.0,29.64,SW,231,3.0,6.0,96,0.02,,,0.46,,2013-03-21 00:22:00,
2013-03-21 01:32:00,56.0,55.0,29.63,SW,232,2.0,5.0,96,0.03,,,0.47,,2013-03-21 00:32:00,
2013-03-21 01:41:00,56.0,55.0,29.63,SW,232,2.0,5.0,96,0.03,,,0.47,,2013-03-21 00:41:00,
2013-03-21 01:52:00,56.0,55.0,29.63,SW,234,3.0,5.0,96,0.03,,,0.47,,2013-03-21 00:52:00,
2013-03-21 02:02:00,56.0,55.0,29.62,WNW,283,4.0,12.0,96,0.02,,,0.47,,2013-03-21 01:02:00,
2013-03-21 02:11:00,56.0,55.0,29.62,WNW,283,4.0,12.0,96,0.02,,,0.47,,2013-03-21 01:11:00,
2013-03-21 02:21:00,56.0,55.0,29.62,WNW,302,2.0,7.0,96,0.01,,,0.47,,2013-03-21 01:21:00,
2013-03-21 02:32:00,55.0,54.0,29.62,WNW,302,3.0,3.0,96,0.01,,,0.47,,2013-03-21 01:32:00,
2013-03-21 02:41:00,55.0,54.0,29.62,WNW,302,3.0,3.0,96,0.01,,,0.47,,2013-03-21 01:41:00,
2013-03-21 02:52:00,55.0,54.0,29.62,WNW,301,2.0,6.0,96,0.00,,,0.47,,2013-03-21 01:52:00,
2013-03-21 03:02:00,54.0,53.0,29.62,West,275,10.0,10.0,96,0.00,,,0.47,,2013-03-21 02:02:00,
2013-03-21 03:11:00,54.0,53.0,29.62,West,275,10.0,10.0,96,0.00,,,0.47,,2013-03-21 02:11:00,
2013-03-21 03:22:00,54.0,53.0,29.62,WNW,283,5.0,15.0,96,0.00,,,0.47,,2013-03-21 02:22:00,
2013-03-21 03:32:00,53.0,52.0,29.62,NW,309,3.0,10.0,96,0.00,,,0.47,,2013-03-21 02:32:00,
2013-03-21 03:41:00,53.0,52.0,29.62,NW,309,3.0,10.0,96,0.00,,,0.47,,2013-03-21 02:41:00,
2013-03-21 03:51:00,53.0,52.0,29.62,NW,309,3.0,10.0,96,0.00,,,0.47,,2013-03-21 02:51:00,
2013-03-21 04:02:00,53.0,52.0,29.62,NW,311,4.0,11.0,96,0.00,,,0.47,,2013-03-21 03:02:00,
2013-03-21 04:11:00,53.0,52.0,29.62,NW,311,4.0,11.0,96,0.00,,,0.47,,2013-03-21 03:11:00,
2013-03-21 04:21:00,53.0,52.0,29.63,NW,314,3.0,10.0,96,0.00,,,0.47,,2013-03-21 03:21:00,
2013-03-21 04:32:00,52.0,51.0,29.64,WNW,294,7.0,10.0,95,0.00,,,0.47,,2013-03-21 03:32:00,
2013-03-21 04:42:00,52.0,51.0,29.64,WNW,294,7.0,10.0,95,0.00,,,0.47,,2013-03-21 03:42:00,
2013-03-21 04:52:00,52.0,51.0,29.64,NW,304,5.0,7.0,96,0.00,,,0.47,,2013-03-21 03:52:00,
2013-03-21 05:02:00,52.0,51.0,29.64,NW,317,3.0,5.0,96,0.00,,,0.47,,2013-03-21 04:02:00,
2013-03-21 05:12:00,52.0,51.0,29.64,NW,317,3.0,5.0,96,0.00,,,0.47,,2013-03-21 04:12:00,
2013-03-21 05:22:00,52.0,51.0,29.63,WNW,285,3.0,8.0,96,0.00,,,0.47,,2013-03-21 04:22:00,
2013-03-21 05:32:00,53.0,52.0,29.64,West,265,10.0,15.0,95,0.00,,,0.47,,2013-03-21 04:32:00,
2013-03-21 05:43:00,53.0,52.0,29.64,West,265,10.0,15.0,95,0.00,,,0.47,,2013-03-21 04:43:00,
2013-03-21 05:52:00,53.0,51.0,29.64,WNW,290,13.0,17.0,94,0.00,,,0.47,,2013-03-21 04:52:00,
2013-03-21 06:02:00,53.0,51.0,29.65,NW,315,6.0,16.0,93,0.00,,,0.47,,2013-03-21 05:02:00,
2013-03-21 06:12:00,53.0,51.0,29.65,NW,315,6.0,16.0,93,0.00,,,0.47,,2013-03-21 05:12:00,
2013-03-21 06:21:00,53.0,51.0,29.65,WNW,296,17.0,17.0,93,0.00,,,0.47,,2013-03-21 05:21:00,
2013-03-21 06:32:00,53.0,51.0,29.66,NW,315,11.0,17.0,94,0.00,,,0.47,,2013-03-21 05:32:00,
2013-03-21 06:43:00,53.0,51.0,29.67,NW,310,10.0,14.0,94,0.00,,,0.47,,2013-03-21 05:43:00,
2013-03-21 06:51:00,53.0,51.0,29.67,NW,310,10.0,14.0,94,0.00,,,0.47,,2013-03-21 05:51:00,
2013-03-21 07:02:00,52.0,50.0,29.67,WNW,302,8.0,19.0,93,0.00,,,0.47,,2013-03-21 06:02:00,
2013-03-21 07:11:00,52.0,50.0,29.67,WNW,302,8.0,19.0,93,0.00,,,0.47,,2013-03-21 06:11:00,
2013-03-21 07:21:00,52.0,50.0,29.68,NW,322,15.0,19.0,92,0.00,,,0.47,,2013-03-21 06:21:00,
2013-03-21 07:32:00,52.0,49.0,29.69,NW,313,10.0,18.0,91,0.00,,,0.47,,2013-03-21 06:32:00,
2013-03-21 07:41:00,52.0,49.0,29.69,NW,313,10.0,18.0,91,0.00,,,0.47,,2013-03-21 06:41:00,
2013-03-21 07:51:00,52.0,49.0,29.69,WNW,301,13.0,22.0,91,0.00,,,0.47,,2013-03-21 06:51:00,
2013-03-21 08:02:00,52.0,49.0,29.70,WNW,300,9.0,21.0,89,0.00,,,0.47,,2013-03-21 07:02:00,
2013-03-21 08:12:00,52.0,49.0,29.70,WNW,300,9.0,21.0,89,0.00,,,0.47,,2013-03-21 07:12:00,
2013-03-21 08:21:00,53.0,49.0,29.70,NW,306,7.0,23.0,87,0.00,,,0.47,,2013-03-21 07:21:00,
2013-03-21 08:32:00,53.0,49.0,29.71,NNW,347,14.0,25.0,86,0.00,,,0.47,,2013-03-21 07:32:00,
2013-03-21 08:41:00,53.0,49.0,29.71,NNW,347,14.0,25.0,86,0.00,,,0.47,,2013-03-21 07:41:00,
2013-03-21 08:52:00,53.0,49.0,29.72,NW,308,16.0,19.0,85,0.00,,,0.47,,2013-03-21 07:52:00,
2013-03-21 09:01:00,53.0,48.0,29.72,West,262,14.0,17.0,84,0.00,,,0.47,,2013-03-21 08:01:00,
2013-03-21 09:12:00,53.0,48.0,29.73,WNW,293,15.0,19.0,83,0.00,,,0.47,,2013-03-21 08:12:00,
2013-03-21 09:22:00,53.0,48.0,29.73,WNW,293,15.0,19.0,83,0.00,,,0.47,,2013-03-21 08:22:00,
2013-03-21 09:33:00,54.0,48.0,29.73,WNW,296,9.0,19.0,81,0.00,,,0.47,,2013-03-21 08:33:00,
2013-03-21 09:41:00,54.0,48.0,29.73,WNW,296,9.0,19.0,81,0.00,,,0.47,,2013-03-21 08:41:00,
2013-03-21 09:51:00,54.0,47.0,29.74,NW,325,12.0,22.0,78,0.00,,,0.47,,2013-03-21 08:51:00,
2013-03-21 10:01:00,55.0,47.0,29.74,NW,319,10.0,23.0,74,0.00,,,0.47,,2013-03-21 09:01:00,
2013-03-21 10:11:00,55.0,47.0,29.74,NW,319,10.0,23.0,74,0.00,,,0.47,,2013-03-21 09:11:00,
2013-03-21 10:21:00,56.0,46.0,29.74,NW,306,6.0,19.0,69,0.00,,,0.47,,2013-03-21 09:21:00,
2013-03-21 10:33:00,56.0,46.0,29.75,NW,323,13.0,25.0,70,0.00,,,0.47,,2013-03-21 09:33:00,
2013-03-21 10:43:00,56.0,46.0,29.75,NW,323,13.0,25.0,70,0.00,,,0.47,,2013-03-21 09:43:00,
2013-03-21 10:53:00,56.0,46.0,29.75,WNW,301,21.0,28.0,70,0.00,,,0.47,,2013-03-21 09:53:00,
2013-03-21 11:02:00,55.0,45.0,29.76,NW,323,19.0,27.0,69,0.00,,,0.47,,2013-03-21 10:02:00,
2013-03-21 11:12:00,55.0,45.0,29.76,NW,323,19.0,27.0,69,0.00,,,0.47,,2013-03-21 10:12:00,
2013-03-21 11:22:00,56.0,45.0,29.77,NNW,333,11.0,24.0,67,0.00,,,0.47,,2013-03-21 10:22:00,
2013-03-21 11:32:00,56.0,46.0,29.77,WNW,302,10.0,21.0,68,0.00,,,0.47,,2013-03-21 10:32:00,
2013-03-21 11:42:00,56.0,46.0,29.77,WNW,302,10.0,21.0,68,0.00,,,0.47,,2013-03-21 10:42:00,
2013-03-21 11:52:00,56.0,46.0,29.76,NW,317,8.0,29.0,69,0.00,,,0.47,,2013-03-21 10:52:00,
2013-03-21 12:02:00,56.0,45.0,29.77,WNW,298,18.0,24.0,67,0.00,,,0.47,,2013-03-21 11:02:00,
2013-03-21 12:12:00,56.0,45.0,29.77,WNW,298,18.0,24.0,67,0.00,,,0.47,,2013-03-21 11:12:00,
2013-03-21 12:22:00,56.0,45.0,29.77,WNW,286,13.0,30.0,66,0.00,,,0.47,,2013-03-21 11:22:00,
2013-03-21 12:32:00,57.0,46.0,29.77,West,278,19.0,26.0,67,0.00,,,0.47,,2013-03-21 11:32:00,
2013-03-21 12:52:00,57.0,45.0,29.77,WNW,298,4.0,31.0,65,0.00,,,0.47,,2013-03-21 11:52:00,
2013-03-21 13:02:00,57.0,45.0,29.77,West,274,21.0,29.0,64,0.00,,,0.47,,2013-03-21 12:02:00,
2013-03-21 13:11:00,57.0,45.0,29.77,West,274,21.0,29.0,64,0.00,,,0.47,,2013-03-21 12:11:00,
2013-03-21 13:21:00,56.0,44.0,29.78,West,278,26.0,30.0,64,0.00,,,0.47,,2013-03-21 12:21:00,
2013-03-21 13:32:00,58.0,44.0,29.77,WNW,288,13.0,26.0,59,0.00,,,0.47,,2013-03-21 12:32:00,
2013-03-21 13:41:00,58.0,44.0,29.77,WNW,288,13.0,26.0,59,0.00,,,0.47,,2013-03-21 12:41:00,
2013-03-21 13:52:00,57.0,43.0,29.77,West,276,33.0,33.0,60,0.00,,,0.47,,2013-03-21 12:52:00,
2013-03-21 14:02:00,58.0,47.0,29.78,NW,306,8.0,23.0,66,0.00,,,0.47,,2013-03-21 13:02:00,
2013-03-21 14:11:00,58.0,47.0,29.78,NW,306,8.0,23.0,66,0.00,,,0.47,,2013-03-21 13:11:00,
2013-03-21 14:21:00,57.0,45.0,29.78,WNW,289,17.0,26.0,64,0.00,,,0.47,,2013-03-21 13:21:00,
2013-03-21 14:32:00,58.0,45.0,29.78,NW,304,18.0,28.0,63,0.00,,,0.47,,2013-03-21 13:32:00,
2013-03-21 14:42:00,58.0,45.0,29.78,NW,304,18.0,28.0,63,0.00,,,0.47,,2013-03-21 13:42:00,
2013-03-21 14:52:00,58.0,46.0,29.78,West,275,11.0,26.0,64,0.00,,,0.47,,2013-03-21 13:52:00,
2013-03-21 15:02:00,58.0,47.0,29.78,NW,304,20.0,27.0,66,0.00,,,0.47,,2013-03-21 14:02:00,
2013-03-21 15:11:00,58.0,48.0,29.78,West,271,12.0,27.0,70,0.00,,,0.47,,2013-03-21 14:11:00,
2013-03-21 15:21:00,58.0,48.0,29.78,West,271,12.0,27.0,70,0.00,,,0.47,,2013-03-21 14:21:00,
2013-03-21 15:32:00,58.0,48.0,29.78,WNW,294,17.0,26.0,70,0.00,,,0.46,,2013-03-21 14:32:00,
2013-03-21 15:42:00,58.0,48.0,29.78,WNW,294,17.0,26.0,70,0.00,,,0.46,,2013-03-21 14:42:00,
2013-03-21 15:51:00,58.0,48.0,29.78,WNW,298,18.0,30.0,70,0.00,,,0.46,,2013-03-21 14:51:00,
2013-03-21 16:02:00,58.0,49.0,29.79,WNW,290,15.0,23.0,71,0.00,,,0.46,,2013-03-21 15:02:00,
2013-03-21 16:11:00,58.0,48.0,29.79,SW,217,5.0,26.0,70,0.00,,,0.45,,2013-03-21 15:11:00,
2013-03-21 16:21:00,58.0,48.0,29.79,SW,217,5.0,26.0,70,0.00,,,0.45,,2013-03-21 15:21:00,
2013-03-21 16:32:00,58.0,49.0,29.80,NW,310,17.0,22.0,72,0.00,,,0.40,,2013-03-21 15:32:00,
2013-03-21 16:42:00,58.0,49.0,29.80,NW,310,17.0,22.0,72,0.00,,,0.40,,2013-03-21 15:42:00,
2013-03-21 16:52:00,58.0,49.0,29.80,NW,310,17.0,22.0,72,0.00,,,0.40,,2013-03-21 15:52:00,
2013-03-21 17:03:00,57.0,48.0,29.80,NW,326,15.0,25.0,71,0.00,,,0.37,,2013-03-21 16:03:00,
2013-03-21 17:12:00,57.0,48.0,29.80,NW,326,15.0,25.0,71,0.00,,,0.37,,2013-03-21 16:12:00,
2013-03-21 17:22:00,57.0,48.0,29.81,West,266,7.0,23.0,71,0.00,,,0.36,,2013-03-21 16:22:00,
2013-03-21 17:32:00,57.0,48.0,29.82,West,279,19.0,22.0,71,0.00,,,0.35,,2013-03-21 16:32:00,
2013-03-21 17:41:00,57.0,48.0,29.82,West,279,19.0,22.0,71,0.00,,,0.35,,2013-03-21 16:41:00,
2013-03-21 17:52:00,57.0,48.0,29.82,WNW,302,16.0,23.0,73,0.00,,,0.34,,2013-03-21 16:52:00,
2013-03-21 18:02:00,56.0,47.0,29.83,NW,312,8.0,20.0,73,0.00,,,0.31,,2013-03-21 17:02:00,
2013-03-21 18:11:00,56.0,47.0,29.83,NW,312,8.0,20.0,73,0.00,,,0.31,,2013-03-21 17:11:00,
2013-03-21 18:22:00,56.0,48.0,29.83,NW,313,6.0,23.0,75,0.00,,,0.29,,2013-03-21 17:22:00,
2013-03-21 18:32:00,56.0,49.0,29.84,NNW,343,7.0,19.0,77,0.00,,,0.25,,2013-03-21 17:32:00,
2013-03-21 18:42:00,56.0,49.0,29.84,NNW,343,7.0,19.0,77,0.00,,,0.25,,2013-03-21 17:42:00,
2013-03-21 18:52:00,56.0,49.0,29.84,NNW,343,7.0,19.0,77,0.00,,,0.25,,2013-03-21 17:52:00,
2013-03-21 19:02:00,55.0,48.0,29.85,NW,321,8.0,16.0,77,0.00,,,0.18,,2013-03-21 18:02:00,
2013-03-21 19:11:00,55.0,48.0,29.85,NW,321,8.0,16.0,77,0.00,,,0.18,,2013-03-21 18:11:00,
2013-03-21 19:22:00,55.0,48.0,29.85,NW,307,12.0,17.0,78,0.00,,,0.15,,2013-03-21 18:22:00,
2013-03-21 19:32:00,55.0,48.0,29.87,NW,306,11.0,17.0,78,0.00,,,0.09,,2013-03-21 18:32:00,
2013-03-21 19:42:00,55.0,48.0,29.87,NW,306,11.0,17.0,78,0.00,,,0.09,,2013-03-21 18:42:00,
2013-03-21 19:52:00,55.0,49.0,29.87,NW,316,10.0,16.0,79,0.00,,,0.08,,2013-03-21 18:52:00,
2013-03-21 20:02:00,55.0,49.0,29.88,NW,308,9.0,16.0,79,0.00,,,0.06,,2013-03-21 19:02:00,
2013-03-21 20:11:00,55.0,49.0,29.88,NW,308,9.0,16.0,79,0.00,,,0.06,,2013-03-21 19:11:00,
2013-03-21 20:21:00,55.0,49.0,29.88,NW,320,12.0,17.0,79,0.00,,,0.05,,2013-03-21 19:21:00,
2013-03-21 20:31:00,55.0,49.0,29.89,WNW,301,10.0,21.0,79,0.00,,,0.05,,2013-03-21 19:31:00,
2013-03-21 20:41:00,55.0,49.0,29.89,WNW,301,10.0,21.0,79,0.00,,,0.05,,2013-03-21 19:41:00,
2013-03-21 20:52:00,55.0,49.0,29.90,NW,320,11.0,17.0,79,0.00,,,0.05,,2013-03-21 19:52:00,
2013-03-21 21:02:00,55.0,47.0,29.89,NNW,344,17.0,17.0,75,0.00,,,0.05,,2013-03-21 20:02:00,
2013-03-21 21:11:00,55.0,47.0,29.89,NNW,344,17.0,17.0,75,0.00,,,0.05,,2013-03-21 20:11:00,
2013-03-21 21:22:00,56.0,47.0,29.90,NNW,327,10.0,19.0,73,0.00,,,0.05,,2013-03-21 20:22:00,
2013-03-21 21:32:00,55.0,47.0,29.91,North,360,7.0,15.0,74,0.00,,,0.05,,2013-03-21 20:32:00,
2013-03-21 21:41:00,55.0,47.0,29.91,North,360,7.0,15.0,74,0.00,,,0.05,,2013-03-21 20:41:00,
2013-03-21 21:51:00,55.0,47.0,29.91,NW,310,13.0,13.0,75,0.00,,,0.05,,2013-03-21 20:51:00,
2013-03-21 22:01:00,55.0,48.0,29.90,NNW,327,9.0,13.0,77,0.00,,,0.05,,2013-03-21 21:01:00,
2013-03-21 22:11:00,55.0,48.0,29.90,NNW,327,9.0,13.0,77,0.00,,,0.05,,2013-03-21 21:11:00,
2013-03-21 22:21:00,54.0,47.0,29.91,NW,325,3.0,15.0,78,0.00,,,0.05,,2013-03-21 21:21:00,
2013-03-21 22:32:00,55.0,47.0,29.91,NNW,330,11.0,12.0,75,0.00,,,0.05,,2013-03-21 21:32:00,
2013-03-21 22:42:00,55.0,47.0,29.91,NNW,330,11.0,12.0,75,0.00,,,0.05,,2013-03-21 21:42:00,
2013-03-21 22:52:00,55.0,47.0,29.91,WNW,290,8.0,10.0,74,0.00,,,0.05,,2013-03-21 21:52:00,
2013-03-21 23:02:00,54.0,46.0,29.91,NW,324,10.0,10.0,75,0.00,,,0.04,,2013-03-21 22:02:00,
2013-03-21 23:12:00,54.0,46.0,29.91,NW,324,10.0,10.0,75,0.00,,,0.04,,2013-03-21 22:12:00,
2013-03-21 23:22:00,54.0,47.0,29.91,NNW,344,4.0,8.0,76,0.00,,,0.04,,2013-03-21 22:22:00,
2013-03-21 23:33:00,55.0,43.0,29.92,North,355,3.0,9.0,65,0.00,,,0.03,,2013-03-21 22:33:00,
2013-03-21 23:42:00,55.0,43.0,29.92,North,355,3.0,9.0,65,0.00,,,0.03,,2013-03-21 22:42:00,
2013-03-21 23:52:00,54.0,43.0,29.92,NNW,346,5.0,9.0,66,0.00,,,0.03,,2013-03-21 22:52:00,